| time (UTC) | temp C | wind direction | speed KPH | gust KPH | rain 1hr cm | rain 24hr cm | rain mn cm | humidity % | barometer mb |
| 20260506155315 | 11 | 32 | 3.2 | 4.8 | 0.00 | 0.00 | 0.00 | 90 | 1020.7 |
| 20260506153427 | 11 | 70 | 1.6 | 9.7 | 0.00 | 0.00 | 0.00 | 89 | 1020.1 |
| 20260506152925 | 11 | 48 | 8.0 | 12.9 | 0.00 | 0.00 | 0.00 | 89 | 1020.3 |
| 20260506152421 | 11 | 37 | 3.2 | 6.4 | 0.00 | 0.00 | 0.00 | 89 | 1020.1 |
| 20260506151920 | 11 | 63 | 3.2 | 8.0 | 0.00 | 0.00 | 0.00 | 88 | 1020.0 |
| 20260506151416 | 11 | 85 | 4.8 | 12.9 | 0.00 | 0.00 | 0.00 | 88 | 1019.8 |
| 20260506150914 | 11 | 48 | 8.0 | 8.0 | 0.00 | 0.00 | 0.00 | 88 | 1020.0 |
| 20260506150410 | 11 | 207 | 3.2 | 9.7 | 0.00 | 0.00 | 0.00 | 88 | 1019.6 |
| 20260506145907 | 11 | 77 | 3.2 | 6.4 | 0.00 | 0.00 | 0.00 | 87 | 1019.5 |
| 20260506145403 | 11 | 42 | 6.4 | 6.4 | 0.00 | 0.00 | 0.00 | 88 | 1019.7 |
| 20260506144901 | 11 | 98 | 3.2 | 4.8 | 0.00 | 0.00 | 0.00 | 88 | 1019.7 |
| 20260506144357 | 11 | 81 | 3.2 | 6.4 | 0.00 | 0.00 | 0.00 | 88 | 1019.5 |
| 20260506143856 | 11 | 95 | 3.2 | 6.4 | 0.00 | 0.00 | 0.00 | 87 | 1019.5 |
| 20260506143352 | 11 | 44 | 3.2 | 4.8 | 0.00 | 0.00 | 0.00 | 88 | 1019.5 |
| 20260506142851 | 11 | 88 | 3.2 | 4.8 | 0.00 | 0.00 | 0.00 | 88 | 1019.5 |
| 20260506142348 | 11 | 28 | 3.2 | 4.8 | 0.00 | 0.00 | 0.00 | 88 | 1019.5 |
| 20260506141846 | 11 | 61 | 3.2 | 9.7 | 0.00 | 0.00 | 0.00 | 87 | 1019.5 |
| 20260506141344 | 11 | 87 | 3.2 | 6.4 | 0.00 | 0.00 | 0.00 | 87 | 1019.7 |
| 20260506140842 | 11 | 49 | 3.2 | 6.4 | 0.00 | 0.00 | 0.00 | 88 | 1019.6 |
| 20260506140338 | 11 | 66 | 3.2 | 6.4 | 0.00 | 0.00 | 0.00 | 88 | 1019.5 |
| 20260506135835 | 11 | 39 | 4.8 | 14.5 | 0.00 | 0.00 | 0.00 | 87 | 1019.4 |
| 20260506135332 | 11 | 68 | 3.2 | 6.4 | 0.00 | 0.00 | 0.00 | 88 | 1019.4 |
| 20260506134828 | 11 | 58 | 4.8 | 8.0 | 0.00 | 0.00 | 0.00 | 88 | 1019.3 |
| 20260506134325 | 11 | 68 | 3.2 | 6.4 | 0.00 | 0.00 | 0.00 | 88 | 1019.2 |
| 20260506133822 | 11 | 52 | 4.8 | 6.4 | 0.00 | 0.00 | 0.00 | 87 | 1019.0 |
| 20260506133319 | 11 | 98 | 6.4 | 6.4 | 0.00 | 0.00 | 0.00 | 88 | 1019.1 |
| 20260506132816 | 11 | 11 | 3.2 | 8.0 | 0.00 | 0.00 | 0.00 | 88 | 1018.8 |
| 20260506132313 | 11 | 82 | 1.6 | 6.4 | 0.00 | 0.00 | 0.00 | 88 | 1019.0 |
| 20260506131811 | 11 | 83 | 4.8 | 4.8 | 0.00 | 0.00 | 0.00 | 88 | 1018.9 |
| 20260506131306 | 11 | 51 | 3.2 | 3.2 | 0.00 | 0.00 | 0.00 | 88 | 1018.8 |
| 20260506130804 | 11 | 36 | 3.2 | 6.4 | 0.00 | 0.00 | 0.00 | 88 | 1019.1 |
| 20260506130300 | 11 | 75 | 3.2 | 9.7 | 0.00 | 0.00 | 0.00 | 88 | 1019.2 |
| 20260506125759 | 11 | 89 | 3.2 | 8.0 | 0.00 | 0.00 | 0.00 | 88 | 1019.2 |
| 20260506125256 | 11 | 64 | 3.2 | 14.5 | 0.00 | 0.00 | 0.00 | 88 | 1019.1 |
| 20260506124754 | 11 | 83 | 4.8 | 6.4 | 0.00 | 0.00 | 0.00 | 88 | 1019.2 |
| 20260506124251 | 11 | 17 | 3.2 | 6.4 | 0.00 | 0.00 | 0.00 | 88 | 1019.2 |
| 20260506123749 | 11 | 311 | 0.0 | 6.4 | 0.00 | 0.00 | 0.00 | 88 | 1019.5 |
| 20260506123247 | 11 | 293 | 4.8 | 6.4 | 0.00 | 0.00 | 0.00 | 88 | 1019.4 |
| 20260506122744 | 11 | 97 | 4.8 | 14.5 | 0.00 | 0.00 | 0.00 | 88 | 1019.3 |
| 20260506122241 | 11 | 49 | 6.4 | 12.9 | 0.00 | 0.00 | 0.00 | 88 | 1019.1 |
| 20260506121739 | 11 | 131 | 1.6 | 6.4 | 0.00 | 0.00 | 0.00 | 88 | 1019.2 |
| 20260506121235 | 11 | 146 | 3.2 | 11.3 | 0.00 | 0.00 | 0.00 | 88 | 1019.0 |
| 20260506120733 | 11 | 67 | 1.6 | 8.0 | 0.00 | 0.00 | 0.00 | 88 | 1018.7 |
| 20260506120231 | 11 | 46 | 3.2 | 4.8 | 0.00 | 0.00 | 0.00 | 88 | 1018.8 |
| 20260506115728 | 11 | 102 | 6.4 | 20.9 | 0.00 | 0.00 | 0.00 | 87 | 1018.6 |
| 20260506115226 | 11 | 72 | 4.8 | 9.7 | 0.00 | 0.00 | 0.00 | 87 | 1018.5 |
| 20260506114724 | 11 | 66 | 4.8 | 9.7 | 0.00 | 0.00 | 0.00 | 87 | 1018.7 |
| 20260506114221 | 11 | 40 | 4.8 | 8.0 | 0.00 | 0.00 | 0.00 | 87 | 1018.6 |
| 20260506113720 | 11 | 93 | 3.2 | 9.7 | 0.00 | 0.00 | 0.00 | 87 | 1018.6 |
| 20260506113217 | 11 | 87 | 6.4 | 8.0 | 0.00 | 0.00 | 0.00 | 87 | 1018.5 |
| 20260506112713 | 11 | 340 | 4.8 | 6.4 | 0.00 | 0.00 | 0.00 | 87 | 1018.6 |
| 20260506112211 | 11 | 28 | 3.2 | 9.7 | 0.00 | 0.00 | 0.00 | 87 | 1018.6 |
| 20260506111708 | 11 | 340 | 1.6 | 14.5 | 0.00 | 0.00 | 0.00 | 87 | 1018.6 |
| 20260506111206 | 11 | 70 | 4.8 | 16.1 | 0.00 | 0.00 | 0.00 | 88 | 1018.6 |
| 20260506110703 | 11 | 102 | 3.2 | 14.5 | 0.00 | 0.00 | 0.00 | 88 | 1018.6 |
| 20260506110200 | 11 | 259 | 6.4 | 8.0 | 0.00 | 0.00 | 0.00 | 87 | 1018.3 |
| 20260506105657 | 11 | 262 | 1.6 | 8.0 | 0.00 | 0.00 | 0.00 | 88 | 1018.3 |
| 20260506105153 | 11 | 83 | 6.4 | 11.3 | 0.00 | 0.00 | 0.00 | 88 | 1018.2 |
| 20260506104652 | 11 | 66 | 4.8 | 8.0 | 0.00 | 0.00 | 0.00 | 89 | 1018.2 |
| 20260506104149 | 11 | 28 | 0.0 | 6.4 | 0.00 | 0.00 | 0.00 | 88 | 1018.0 |
| 20260506103646 | 11 | 56 | 6.4 | 6.4 | 0.00 | 0.00 | 0.00 | 89 | 1017.7 |
| 20260506103143 | 11 | 85 | 6.4 | 9.7 | 0.00 | 0.00 | 0.00 | 89 | 1018.0 |
| 20260506102641 | 11 | 338 | 6.4 | 6.4 | 0.00 | 0.00 | 0.00 | 90 | 1017.7 |
| 20260506102138 | 11 | 85 | 4.8 | 6.4 | 0.00 | 0.00 | 0.00 | 90 | 1017.6 |
| 20260506101635 | 11 | 113 | 3.2 | 12.9 | 0.00 | 0.00 | 0.00 | 91 | 1017.6 |
| 20260506101132 | 11 | 85 | 3.2 | 6.4 | 0.00 | 0.00 | 0.00 | 91 | 1017.4 |
| 20260506100630 | 11 | 16 | 3.2 | 6.4 | 0.00 | 0.00 | 0.00 | 90 | 1017.5 |
| 20260506100128 | 11 | 110 | 1.6 | 6.4 | 0.00 | 0.00 | 0.00 | 90 | 1017.5 |
| 20260506095626 | 11 | 88 | 3.2 | 3.2 | 0.00 | 0.00 | 0.00 | 89 | 1017.5 |
| 20260506095122 | 11 | 16 | 3.2 | 4.8 | 0.00 | 0.00 | 0.00 | 89 | 1017.4 |
| 20260506094620 | 11 | 101 | 3.2 | 20.9 | 0.00 | 0.00 | 0.00 | 89 | 1017.5 |
| 20260506094118 | 11 | 80 | 3.2 | 6.4 | 0.00 | 0.00 | 0.00 | 89 | 1017.5 |
| 20260506093616 | 11 | 131 | 3.2 | 9.7 | 0.00 | 0.00 | 0.00 | 89 | 1017.6 |
| 20260506093113 | 11 | 153 | 6.4 | 6.4 | 0.00 | 0.00 | 0.00 | 89 | 1017.5 |
| 20260506092611 | 11 | 190 | 3.2 | 9.7 | 0.00 | 0.00 | 0.00 | 89 | 1017.5 |
| 20260506092107 | 11 | 69 | 4.8 | 4.8 | 0.00 | 0.00 | 0.00 | 89 | 1017.3 |
| 20260506091606 | 11 | 99 | 9.7 | 9.7 | 0.00 | 0.00 | 0.00 | 89 | 1017.6 |
| 20260506091103 | 11 | 87 | 3.2 | 6.4 | 0.00 | 0.00 | 0.00 | 91 | 1017.5 |
| 20260506090600 | 11 | 96 | 4.8 | 4.8 | 0.00 | 0.00 | 0.00 | 90 | 1017.4 |
| 20260506090056 | 11 | 103 | 6.4 | 6.4 | 0.00 | 0.00 | 0.00 | 91 | 1017.3 |
| 20260506085554 | 11 | 77 | 3.2 | 4.8 | 0.00 | 0.00 | 0.00 | 91 | 1017.5 |
| 20260506085050 | 11 | 88 | 3.2 | 3.2 | 0.00 | 0.00 | 0.00 | 90 | 1017.3 |
| 20260506084547 | 11 | 123 | 1.6 | 6.4 | 0.00 | 0.00 | 0.00 | 90 | 1017.5 |
| 20260506084043 | 11 | 71 | 1.6 | 9.7 | 0.00 | 0.00 | 0.00 | 91 | 1017.4 |
| 20260506083540 | 11 | 72 | 4.8 | 4.8 | 0.00 | 0.00 | 0.00 | 90 | 1017.2 |
| 20260506083038 | 11 | 100 | 3.2 | 4.8 | 0.00 | 0.00 | 0.00 | 90 | 1017.3 |
| 20260506082534 | 11 | 92 | 0.0 | 3.2 | 0.00 | 0.00 | 0.00 | 89 | 1017.5 |
| 20260506082030 | 11 | 127 | 9.7 | 9.7 | 0.00 | 0.00 | 0.00 | 89 | 1017.5 |
| 20260506081528 | 11 | 84 | 6.4 | 6.4 | 0.00 | 0.00 | 0.00 | 88 | 1017.3 |
| 20260506081026 | 11 | 33 | 3.2 | 6.4 | 0.00 | 0.00 | 0.00 | 89 | 1017.3 |
| 20260506080523 | 11 | 195 | 1.6 | 16.1 | 0.00 | 0.00 | 0.00 | 90 | 1017.2 |
| 20260506073507 | 11 | 132 | 3.2 | 6.4 | 0.00 | 0.00 | 0.00 | 89 | 1016.9 |
| 20260506073004 | 11 | 76 | 1.6 | 6.4 | 0.00 | 0.00 | 0.00 | 89 | 1016.8 |
| 20260506072501 | 11 | 27 | 3.2 | 4.8 | 0.00 | 0.00 | 0.00 | 89 | 1016.6 |
| 20260506071958 | 11 | 244 | 4.8 | 4.8 | 0.00 | 0.00 | 0.00 | 90 | 1016.8 |
| 20260506071456 | 11 | 232 | 4.8 | 6.4 | 0.00 | 0.00 | 0.00 | 90 | 1016.7 |
| 20260506070953 | 11 | 45 | 0.0 | 6.4 | 0.00 | 0.00 | 0.00 | 92 | 1016.7 |
| 20260506070450 | 11 | 98 | 1.6 | 4.8 | 0.00 | 0.00 | 0.00 | 92 | 1016.8 |
| 20260506062428 | 11 | 64 | 0.0 | 3.2 | 0.00 | 0.00 | 0.00 | 92 | 1016.7 |
| 20260506061923 | 11 | 87 | 1.6 | 3.2 | 0.00 | 0.00 | 0.00 | 92 | 1016.8 |
| 20260506061420 | 11 | 81 | 1.6 | 3.2 | 0.00 | 0.00 | 0.00 | 92 | 1016.7 |
| 20260506060918 | 11 | 66 | 3.2 | 3.2 | 0.00 | 0.00 | 0.00 | 92 | 1016.7 |
| 20260506060416 | 11 | 81 | 1.6 | 4.8 | 0.00 | 0.00 | 0.00 | 91 | 1016.7 |
| 20260506051348 | 12 | 122 | 0.0 | 3.2 | 0.00 | 0.00 | 0.00 | 88 | 1016.4 |
| 20260506050845 | 12 | 54 | 3.2 | 4.8 | 0.00 | 0.00 | 0.00 | 87 | 1016.5 |
| 20260506050343 | 12 | 49 | 0.0 | 3.2 | 0.00 | 0.00 | 0.00 | 86 | 1016.4 |
| 20260506044833 | 12 | 32 | 3.2 | 3.2 | 0.00 | 0.00 | 0.00 | 87 | 1016.3 |
| 20260506044331 | 12 | 39 | 1.6 | 9.7 | 0.00 | 0.00 | 0.00 | 88 | 1016.0 |
| 20260506043828 | 12 | 75 | 1.6 | 3.2 | 0.00 | 0.00 | 0.00 | 88 | 1015.9 |
| 20260506043325 | 12 | 47 | 3.2 | 6.4 | 0.00 | 0.00 | 0.00 | 88 | 1015.9 |
| 20260506042823 | 12 | 77 | 1.6 | 3.2 | 0.00 | 0.00 | 0.00 | 87 | 1016.0 |
| 20260506042322 | 12 | 69 | 0.0 | 3.2 | 0.00 | 0.00 | 0.00 | 87 | 1015.8 |
| 20260506041821 | 12 | 84 | 3.2 | 3.2 | 0.00 | 0.00 | 0.00 | 86 | 1016.0 |
| 20260506041317 | 13 | 34 | 1.6 | 3.2 | 0.00 | 0.00 | 0.00 | 85 | 1016.0 |
| 20260506040814 | 13 | 83 | 0.0 | 3.2 | 0.00 | 0.00 | 0.00 | 84 | 1015.9 |
| 20260506040311 | 13 | 72 | 0.0 | 3.2 | 0.00 | 0.00 | 0.00 | 83 | 1015.7 |
| 20260506035808 | 13 | 66 | 0.0 | 3.2 | 0.00 | 0.00 | 0.00 | 82 | 1015.6 |
| 20260506035306 | 13 | 37 | 3.2 | 3.2 | 0.00 | 0.00 | 0.00 | 80 | 1015.6 |
| 20260506034802 | 14 | 94 | 3.2 | 4.8 | 0.00 | 0.00 | 0.00 | 79 | 1015.7 |
| 20260506034259 | 14 | 86 | 3.2 | 6.4 | 0.00 | 0.00 | 0.00 | 79 | 1015.6 |
| 20260506033756 | 14 | 108 | 6.4 | 6.4 | 0.00 | 0.00 | 0.00 | 79 | 1015.6 |
| 20260506033253 | 14 | 40 | 6.4 | 8.0 | 0.00 | 0.00 | 0.00 | 78 | 1015.8 |
| 20260506032750 | 14 | 93 | 6.4 | 12.9 | 0.00 | 0.00 | 0.00 | 79 | 1015.5 |
| 20260506032247 | 14 | 75 | 0.0 | 6.4 | 0.00 | 0.00 | 0.00 | 78 | 1015.6 |
| 20260506031743 | 14 | 54 | 6.4 | 9.7 | 0.00 | 0.00 | 0.00 | 78 | 1015.4 |
| 20260506031241 | 14 | 110 | 6.4 | 6.4 | 0.00 | 0.00 | 0.00 | 78 | 1015.4 |
| 20260506030739 | 14 | 30 | 9.7 | 11.3 | 0.00 | 0.00 | 0.00 | 78 | 1015.3 |
| 20260506030236 | 15 | 63 | 0.0 | 3.2 | 0.00 | 0.00 | 0.00 | 78 | 1015.3 |
| 20260506025733 | 15 | 224 | 3.2 | 4.8 | 0.00 | 0.00 | 0.00 | 78 | 1015.3 |
| 20260506025230 | 15 | 83 | 3.2 | 6.4 | 0.00 | 0.00 | 0.00 | 77 | 1015.4 |
| 20260506024726 | 15 | 189 | 1.6 | 6.4 | 0.00 | 0.00 | 0.00 | 77 | 1015.4 |
| 20260506024223 | 15 | 59 | 3.2 | 3.2 | 0.00 | 0.00 | 0.00 | 77 | 1015.3 |
| 20260506023719 | 15 | 33 | 14.5 | 14.5 | 0.00 | 0.00 | 0.00 | 76 | 1015.4 |
| 20260506023217 | 15 | 74 | 1.6 | 6.4 | 0.00 | 0.00 | 0.00 | 76 | 1015.5 |
| 20260506022713 | 15 | 4 | 1.6 | 6.4 | 0.00 | 0.00 | 0.00 | 76 | 1015.7 |
| 20260506022211 | 15 | 84 | 0.0 | 9.7 | 0.00 | 0.00 | 0.00 | 76 | 1015.6 |
| 20260506021709 | 15 | 15 | 4.8 | 16.1 | 0.00 | 0.00 | 0.00 | 75 | 1015.5 |
| 20260506021206 | 15 | 21 | 3.2 | 3.2 | 0.00 | 0.00 | 0.00 | 76 | 1015.5 |
| 20260506020702 | 15 | 63 | 3.2 | 8.0 | 0.00 | 0.00 | 0.00 | 76 | 1015.6 |
| 20260506020200 | 15 | 107 | 4.8 | 14.5 | 0.00 | 0.00 | 0.00 | 75 | 1015.4 |
| 20260506015657 | 15 | 114 | 3.2 | 6.4 | 0.00 | 0.00 | 0.00 | 75 | 1015.6 |
| 20260506015155 | 15 | 202 | 3.2 | 12.9 | 0.00 | 0.00 | 0.00 | 75 | 1015.4 |
| 20260506014652 | 15 | 256 | 3.2 | 4.8 | 0.00 | 0.00 | 0.00 | 75 | 1015.4 |
| 20260506014148 | 15 | 218 | 6.4 | 6.4 | 0.00 | 0.00 | 0.00 | 74 | 1015.4 |
| 20260506013646 | 16 | 231 | 6.4 | 8.0 | 0.00 | 0.00 | 0.00 | 74 | 1015.6 |
| 20260506013143 | 16 | 160 | 3.2 | 8.0 | 0.00 | 0.00 | 0.00 | 73 | 1015.5 |
| 20260506012639 | 16 | 66 | 0.0 | 4.8 | 0.00 | 0.00 | 0.00 | 73 | 1015.3 |
| 20260506012136 | 16 | 78 | 3.2 | 9.7 | 0.00 | 0.00 | 0.00 | 70 | 1015.3 |
| 20260506011633 | 17 | 307 | 0.0 | 4.8 | 0.00 | 0.00 | 0.00 | 70 | 1015.4 |
| 20260506011129 | 17 | 41 | 4.8 | 6.4 | 0.00 | 0.00 | 0.00 | 71 | 1015.3 |
| 20260506010628 | 16 | 22 | 9.7 | 9.7 | 0.00 | 0.00 | 0.00 | 71 | 1015.3 |
| 20260506010125 | 17 | 237 | 4.8 | 6.4 | 0.00 | 0.00 | 0.00 | 70 | 1015.4 |
| 20260506005622 | 17 | 46 | 0.0 | 9.7 | 0.00 | 0.00 | 0.00 | 67 | 1015.4 |
| 20260506005118 | 18 | 137 | 1.6 | 4.8 | 0.00 | 0.00 | 0.00 | 67 | 1015.3 |
| 20260506004615 | 18 | 40 | 3.2 | 4.8 | 0.00 | 0.00 | 0.00 | 67 | 1015.2 |
| 20260506004112 | 18 | 49 | 4.8 | 9.7 | 0.00 | 0.00 | 0.00 | 67 | 1015.4 |
| 20260506003608 | 18 | 58 | 3.2 | 16.1 | 0.00 | 0.00 | 0.00 | 67 | 1015.3 |
| 20260506003104 | 18 | 312 | 3.2 | 8.0 | 0.00 | 0.00 | 0.00 | 68 | 1015.4 |
| 20260506002600 | 18 | 111 | 3.2 | 9.7 | 0.00 | 0.00 | 0.00 | 67 | 1015.5 |
| 20260506002056 | 20 | 104 | 4.8 | 6.4 | 0.00 | 0.00 | 0.00 | 64 | 1015.5 |
| 20260506001553 | 20 | 61 | 3.2 | 3.2 | 0.00 | 0.00 | 0.00 | 62 | 1015.6 |
| 20260506001050 | 20 | 93 | 6.4 | 6.4 | 0.00 | 0.00 | 0.00 | 63 | 1015.6 |
| 20260506000547 | 20 | 77 | 3.2 | 4.8 | 0.00 | 0.00 | 0.00 | 62 | 1015.7 |
| 20260506000045 | 19 | 74 | 3.2 | 6.4 | 0.00 | 0.00 | 0.00 | 65 | 1015.8 |
| 20260505235543 | 18 | 44 | 4.8 | 6.4 | 0.00 | 0.00 | 0.00 | 67 | 1015.7 |
| 20260505235039 | 18 | 113 | 6.4 | 9.7 | 0.00 | 0.00 | 0.00 | 67 | 1015.8 |
| 20260505234536 | 18 | 47 | 3.2 | 6.4 | 0.00 | 0.00 | 0.00 | 68 | 1015.8 |
| 20260505234033 | 18 | 64 | 4.8 | 4.8 | 0.00 | 0.00 | 0.00 | 66 | 1015.9 |
| 20260505233531 | 18 | 41 | 4.8 | 12.9 | 0.00 | 0.00 | 0.00 | 66 | 1016.2 |
| 20260505233028 | 17 | 111 | 3.2 | 11.3 | 0.00 | 0.00 | 0.00 | 68 | 1016.0 |
| 20260505232526 | 18 | 11 | 16.1 | 17.7 | 0.00 | 0.00 | 0.00 | 67 | 1016.1 |
| 20260505232023 | 18 | 109 | 3.2 | 17.7 | 0.00 | 0.00 | 0.00 | 67 | 1016.2 |
| 20260505231520 | 19 | 103 | 4.8 | 8.0 | 0.00 | 0.00 | 0.00 | 65 | 1016.2 |
| 20260505231019 | 18 | 51 | 6.4 | 6.4 | 0.00 | 0.00 | 0.00 | 66 | 1016.3 |
| 20260505230515 | 18 | 273 | 8.0 | 9.7 | 0.00 | 0.00 | 0.00 | 67 | 1016.2 |
| 20260505230012 | 18 | 57 | 6.4 | 6.4 | 0.00 | 0.00 | 0.00 | 69 | 1016.2 |
| 20260505225509 | 18 | 22 | 3.2 | 8.0 | 0.00 | 0.00 | 0.00 | 69 | 1016.3 |
| 20260505225005 | 17 | 351 | 3.2 | 12.9 | 0.00 | 0.00 | 0.00 | 71 | 1016.4 |
| 20260505224502 | 17 | 36 | 1.6 | 6.4 | 0.00 | 0.00 | 0.00 | 69 | 1016.3 |
| 20260505223959 | 17 | 13 | 1.6 | 12.9 | 0.00 | 0.00 | 0.00 | 68 | 1016.5 |
| 20260505223456 | 17 | 30 | 3.2 | 9.7 | 0.00 | 0.00 | 0.00 | 69 | 1016.4 |
| 20260505222952 | 17 | 142 | 0.0 | 6.4 | 0.00 | 0.00 | 0.00 | 71 | 1016.4 |
| 20260505222448 | 17 | 23 | 3.2 | 9.7 | 0.00 | 0.00 | 0.00 | 71 | 1016.4 |
| 20260505221944 | 16 | 63 | 4.8 | 9.7 | 0.00 | 0.00 | 0.00 | 71 | 1016.8 |
| 20260505221442 | 17 | 20 | 0.0 | 20.9 | 0.00 | 0.00 | 0.00 | 69 | 1016.7 |
| 20260505220939 | 17 | 352 | 3.2 | 8.0 | 0.00 | 0.00 | 0.00 | 69 | 1016.7 |
| 20260505220436 | 18 | 84 | 3.2 | 6.4 | 0.00 | 0.00 | 0.00 | 68 | 1016.5 |
| 20260505215933 | 17 | 39 | 4.8 | 9.7 | 0.00 | 0.00 | 0.00 | 69 | 1016.8 |
| 20260505215431 | 17 | 78 | 4.8 | 6.4 | 0.00 | 0.00 | 0.00 | 72 | 1016.7 |
| 20260505214929 | 17 | 70 | 3.2 | 4.8 | 0.00 | 0.00 | 0.00 | 71 | 1016.7 |
| 20260505214427 | 16 | 11 | 4.8 | 6.4 | 0.00 | 0.00 | 0.00 | 72 | 1016.8 |
| 20260505213924 | 16 | 40 | 4.8 | 9.7 | 0.00 | 0.00 | 0.00 | 72 | 1017.0 |
| 20260505213421 | 16 | 127 | 17.7 | 17.7 | 0.00 | 0.00 | 0.00 | 73 | 1016.7 |
| 20260505212917 | 16 | 357 | 1.6 | 6.4 | 0.00 | 0.00 | 0.00 | 75 | 1016.9 |
| 20260505212414 | 15 | 214 | 3.2 | 16.1 | 0.00 | 0.00 | 0.00 | 75 | 1017.0 |
| 20260505211910 | 15 | 19 | 1.6 | 9.7 | 0.00 | 0.00 | 0.00 | 76 | 1017.0 |
| 20260505211408 | 15 | 6 | 3.2 | 14.5 | 0.00 | 0.00 | 0.00 | 76 | 1016.9 |
| 20260505210904 | 16 | 340 | 1.6 | 6.4 | 0.00 | 0.00 | 0.00 | 75 | 1016.9 |
| 20260505210402 | 16 | 6 | 3.2 | 12.9 | 0.00 | 0.00 | 0.00 | 75 | 1017.0 |
| 20260505205858 | 16 | 24 | 3.2 | 6.4 | 0.00 | 0.00 | 0.00 | 75 | 1017.0 |
| 20260505205357 | 15 | 96 | 3.2 | 4.8 | 0.00 | 0.00 | 0.00 | 76 | 1017.0 |
| 20260505204853 | 15 | 27 | 1.6 | 16.1 | 0.00 | 0.00 | 0.00 | 76 | 1017.3 |
| 20260505204351 | 16 | 81 | 3.2 | 8.0 | 0.00 | 0.00 | 0.00 | 75 | 1017.0 |
| 20260505203848 | 16 | 345 | 0.0 | 8.0 | 0.00 | 0.00 | 0.00 | 75 | 1016.9 |
| 20260505203344 | 15 | 42 | 14.5 | 16.1 | 0.00 | 0.00 | 0.00 | 75 | 1017.0 |
| 20260505202841 | 15 | 31 | 3.2 | 6.4 | 0.00 | 0.00 | 0.00 | 78 | 1016.9 |
| 20260505202337 | 15 | 263 | 3.2 | 8.0 | 0.00 | 0.00 | 0.00 | 76 | 1016.9 |
| 20260505201834 | 15 | 341 | 4.8 | 6.4 | 0.00 | 0.00 | 0.00 | 77 | 1016.9 |
| 20260505201331 | 15 | 64 | 6.4 | 12.9 | 0.00 | 0.00 | 0.00 | 76 | 1016.9 |
| 20260505200830 | 15 | 29 | 3.2 | 8.0 | 0.00 | 0.00 | 0.00 | 76 | 1016.8 |
| 20260505200326 | 15 | 261 | 3.2 | 11.3 | 0.00 | 0.00 | 0.00 | 78 | 1016.7 |
| 20260505195821 | 15 | 76 | 3.2 | 17.7 | 0.00 | 0.00 | 0.00 | 78 | 1017.0 |
| 20260505195319 | 15 | 333 | 4.8 | 6.4 | 0.00 | 0.00 | 0.00 | 77 | 1017.0 |
| 20260505194816 | 15 | 9 | 6.4 | 8.0 | 0.00 | 0.00 | 0.00 | 79 | 1017.0 |
| 20260505194313 | 15 | 31 | 3.2 | 9.7 | 0.00 | 0.00 | 0.00 | 79 | 1017.0 |
| 20260505193808 | 15 | 278 | 1.6 | 11.3 | 0.00 | 0.00 | 0.00 | 77 | 1017.1 |
| 20260505193307 | 15 | 284 | 1.6 | 6.4 | 0.00 | 0.00 | 0.00 | 77 | 1016.9 |
| 20260505192804 | 15 | 31 | 6.4 | 6.4 | 0.00 | 0.00 | 0.00 | 77 | 1017.0 |
| 20260505192305 | 15 | 107 | 3.2 | 6.4 | 0.00 | 0.00 | 0.00 | 78 | 1017.0 |
| 20260505191800 | 15 | 45 | 4.8 | 16.1 | 0.00 | 0.00 | 0.00 | 77 | 1016.9 |
| 20260505191258 | 15 | 16 | 6.4 | 11.3 | 0.00 | 0.00 | 0.00 | 77 | 1016.8 |
| 20260505190754 | 15 | 87 | 3.2 | 8.0 | 0.00 | 0.00 | 0.00 | 77 | 1016.9 |
| 20260505190249 | 15 | 52 | 3.2 | 6.4 | 0.00 | 0.00 | 0.00 | 78 | 1016.8 |
| 20260505185746 | 15 | 115 | 3.2 | 8.0 | 0.00 | 0.00 | 0.00 | 79 | 1016.9 |
| 20260505185242 | 15 | 22 | 3.2 | 4.8 | 0.00 | 0.00 | 0.00 | 79 | 1016.9 |
| 20260505184738 | 15 | 359 | 1.6 | 14.5 | 0.00 | 0.00 | 0.00 | 79 | 1017.0 |
| 20260505184236 | 15 | 69 | 0.0 | 9.7 | 0.00 | 0.00 | 0.00 | 80 | 1017.0 |
| 20260505183732 | 15 | 83 | 3.2 | 6.4 | 0.00 | 0.00 | 0.00 | 80 | 1016.8 |
| 20260505183230 | 15 | 302 | 0.0 | 3.2 | 0.00 | 0.00 | 0.00 | 81 | 1017.0 |
| 20260505182726 | 15 | 32 | 0.0 | 4.8 | 0.00 | 0.00 | 0.00 | 81 | 1016.9 |
| 20260505182223 | 15 | 74 | 6.4 | 12.9 | 0.00 | 0.00 | 0.00 | 80 | 1016.8 |
| 20260505181719 | 14 | 107 | 1.6 | 3.2 | 0.00 | 0.00 | 0.00 | 81 | 1016.8 |
| 20260505181217 | 14 | 89 | 3.2 | 8.0 | 0.00 | 0.00 | 0.00 | 82 | 1016.8 |
| 20260505180714 | 14 | 1 | 0.0 | 3.2 | 0.00 | 0.00 | 0.00 | 82 | 1016.7 |
| 20260505180210 | 14 | 32 | 6.4 | 14.5 | 0.00 | 0.00 | 0.00 | 82 | 1016.7 |
| 20260505175706 | 14 | 344 | 0.0 | 16.1 | 0.00 | 0.00 | 0.00 | 83 | 1016.7 |
| 20260505175203 | 14 | 48 | 6.4 | 6.4 | 0.00 | 0.00 | 0.00 | 82 | 1016.9 |
| 20260505174659 | 14 | 21 | 4.8 | 4.8 | 0.00 | 0.00 | 0.00 | 81 | 1016.7 |
| 20260505174155 | 14 | 285 | 1.6 | 3.2 | 0.00 | 0.00 | 0.00 | 82 | 1016.9 |
| 20260505173652 | 14 | 119 | 3.2 | 14.5 | 0.00 | 0.00 | 0.00 | 81 | 1016.7 |
| 20260505173149 | 14 | 113 | 0.0 | 3.2 | 0.00 | 0.00 | 0.00 | 82 | 1016.7 |
| 20260505172647 | 13 | 345 | 3.2 | 6.4 | 0.00 | 0.00 | 0.00 | 83 | 1016.6 |
| 20260505172144 | 13 | 13 | 1.6 | 4.8 | 0.00 | 0.00 | 0.00 | 83 | 1016.6 |
| 20260505171643 | 13 | 42 | 8.0 | 9.7 | 0.00 | 0.00 | 0.00 | 83 | 1016.7 |
| 20260505171141 | 13 | 129 | 9.7 | 9.7 | 0.00 | 0.00 | 0.00 | 82 | 1016.6 |
| 20260505170638 | 14 | 104 | 6.4 | 6.4 | 0.00 | 0.00 | 0.00 | 82 | 1016.6 |
| 20260505170135 | 14 | 221 | 3.2 | 14.5 | 0.00 | 0.00 | 0.00 | 80 | 1016.6 |
| 20260505165634 | 14 | 116 | 0.0 | 4.8 | 0.00 | 0.00 | 0.00 | 81 | 1016.7 |
| 20260505165131 | 14 | 66 | 4.8 | 4.8 | 0.00 | 0.00 | 0.00 | 81 | 1016.8 |
| 20260505164626 | 13 | 83 | 1.6 | 4.8 | 0.00 | 0.00 | 0.00 | 82 | 1016.5 |
| 20260505164124 | 13 | 26 | 4.8 | 6.4 | 0.00 | 0.00 | 0.00 | 82 | 1016.5 |
| 20260505163622 | 13 | 76 | 3.2 | 4.8 | 0.00 | 0.00 | 0.00 | 82 | 1016.5 |
| 20260505163119 | 13 | 146 | 3.2 | 6.4 | 0.00 | 0.00 | 0.00 | 82 | 1016.5 |
| 20260505162617 | 13 | 84 | 3.2 | 9.7 | 0.00 | 0.00 | 0.00 | 82 | 1016.5 |
| 20260505162115 | 13 | 115 | 4.8 | 6.4 | 0.00 | 0.00 | 0.00 | 83 | 1016.4 |
| 20260505161612 | 13 | 99 | 6.4 | 6.4 | 0.00 | 0.00 | 0.00 | 83 | 1016.5 |
| 20260505161109 | 13 | 57 | 0.0 | 6.4 | 0.00 | 0.00 | 0.00 | 83 | 1016.4 |
| 20260505160606 | 13 | 65 | 3.2 | 3.2 | 0.00 | 0.00 | 0.00 | 84 | 1016.5 |
| 20260505160104 | 13 | 21 | 1.6 | 8.0 | 0.00 | 0.00 | 0.00 | 84 | 1016.6 |